When you browse on this site, cookies collect data to enhance your experience and personalize the content and advertising you see.
Visit our Privacy Policy to learn more. By continuing to use the site, you agree to this use of cookies and data.
  • In Hungary
  • List of Countries
  • For 7 days
  • Water Temperature
  • Satellite Maps
  • Weather Map
  • News
  • Weather Widgets
  • user-avatar
    Login

    Hourly Weather Keshod

    Today, 21 April, Sunday

    Time Temperature Precipitation Wind Pressure Humidity
    00:00 +31°C° 0 mm 3 mps 751 mmHg 33%
    01:00 +30°C° 0 mm 3 mps 751 mmHg 35%
    02:00 +29°C° 0 mm 2 mps 751 mmHg 38%
    03:00 +29°C° 0 mm 2 mps 751 mmHg 42%
    04:00 +28°C° 0 mm 2 mps 751 mmHg 45%
    05:00 +28°C° 0 mm 2 mps 750 mmHg 46%
    06:00 +29°C° 0 mm 3 mps 751 mmHg 44%
    07:00 +30°C° 0 mm 3 mps 751 mmHg 42%
    08:00 +31°C° 0 mm 3 mps 752 mmHg 41%
    09:00 +35°C° 0 mm 4 mps 752 mmHg 33%
    10:00 +37°C° 0 mm 4 mps 752 mmHg 26%
    11:00 +40°C° 0 mm 4 mps 752 mmHg 18%
    12:00 +41°C° 0 mm 4 mps 752 mmHg 17%
    13:00 +42°C° 0 mm 5 mps 751 mmHg 16%
    14:00 +43°C° 0 mm 5 mps 751 mmHg 15%
    15:00 +42°C° 0 mm 6 mps 750 mmHg 17%
    16:00 +41°C° 0 mm 7 mps 750 mmHg 19%
    17:00 +40°C° 0 mm 8 mps 750 mmHg 21%
    18:00 +38°C° 0 mm 7 mps 750 mmHg 26%
    19:00 +35°C° 0 mm 7 mps 750 mmHg 31%
    20:00 +34°C° 0 mm 6 mps 750 mmHg 36%
    21:00 +33°C° 0 mm 5 mps 751 mmHg 39%
    22:00 +32°C° 0 mm 5 mps 751 mmHg 43%
    23:00 +30°C° 0 mm 4 mps 751 mmHg 46%

    Tomorrow, 22 April, Monday

    Time Temperature Precipitation Wind Pressure Humidity
    00:00 +30°C° 0 mm 3 mps 751 mmHg 48%
    01:00 +29°C° 0 mm 3 mps 750 mmHg 50%
    02:00 +29°C° 0 mm 2 mps 750 mmHg 52%
    03:00 +28°C° 0 mm 2 mps 750 mmHg 54%
    04:00 +28°C° 0 mm 2 mps 750 mmHg 55%
    05:00 +27°C° 0 mm 2 mps 750 mmHg 57%
    06:00 +29°C° 0 mm 2 mps 751 mmHg 53%
    07:00 +30°C° 0 mm 3 mps 752 mmHg 48%
    08:00 +31°C° 0 mm 3 mps 752 mmHg 43%
    09:00 +35°C° 0 mm 3 mps 752 mmHg 35%
    10:00 +37°C° 0 mm 3 mps 752 mmHg 27%
    11:00 +41°C° 0 mm 4 mps 753 mmHg 19%
    12:00 +42°C° 0 mm 4 mps 752 mmHg 19%
    13:00 +42°C° 0 mm 5 mps 752 mmHg 18%
    14:00 +43°C° 0 mm 5 mps 751 mmHg 18%
    15:00 +42°C° 0 mm 6 mps 751 mmHg 21%
    16:00 +41°C° 0 mm 7 mps 750 mmHg 25%
    17:00 +39°C° 0 mm 8 mps 750 mmHg 28%
    18:00 +36°C° 0 mm 7 mps 751 mmHg 35%
    19:00 +35°C° 0 mm 6 mps 751 mmHg 42%
    20:00 +33°C° 0 mm 5 mps 751 mmHg 49%
    21:00 +32°C° 0 mm 5 mps 752 mmHg 53%
    22:00 +32°C° 0 mm 4 mps 752 mmHg 57%
    23:00 +30°C° 0 mm 4 mps 752 mmHg 61%

    Day after tomorrow, 23 April, Tuesday

    Time Temperature Precipitation Wind Pressure Humidity
    00:00 +30°C° 0 mm 4 mps 752 mmHg 62%
    01:00 +29°C° 0 mm 4 mps 751 mmHg 63%
    02:00 +29°C° 0 mm 4 mps 751 mmHg 64%
    03:00 +28°C° 0 mm 3 mps 751 mmHg 66%
    04:00 +28°C° 0 mm 3 mps 751 mmHg 68%
    05:00 +28°C° 0 mm 3 mps 751 mmHg 70%
    06:00 +29°C° 0 mm 3 mps 751 mmHg 63%
    07:00 +30°C° 0 mm 3 mps 752 mmHg 57%
    08:00 +32°C° 0 mm 4 mps 752 mmHg 51%
    09:00 +35°C° 0 mm 4 mps 753 mmHg 41%
    10:00 +37°C° 0 mm 3 mps 753 mmHg 31%
    11:00 +40°C° 0 mm 3 mps 753 mmHg 22%
    12:00 +42°C° 0 mm 4 mps 753 mmHg 21%
    13:00 +43°C° 0 mm 4 mps 752 mmHg 20%
    14:00 +45°C° 0 mm 5 mps 751 mmHg 19%
    15:00 +42°C° 0 mm 6 mps 751 mmHg 24%
    16:00 +41°C° 0 mm 7 mps 751 mmHg 30%
    17:00 +39°C° 0 mm 8 mps 750 mmHg 35%
    18:00 +36°C° 0 mm 7 mps 751 mmHg 42%
    19:00 +34°C° 0 mm 6 mps 751 mmHg 50%
    20:00 +32°C° 0 mm 6 mps 752 mmHg 57%
    21:00 +32°C° 0 mm 5 mps 752 mmHg 61%
    22:00 +30°C° 0 mm 5 mps 752 mmHg 65%
    23:00 +30°C° 0 mm 4 mps 753 mmHg 68%

    24 April, Wednesday

    Time Temperature Precipitation Wind Pressure Humidity
    00:00 +29°C° 0 mm 5 mps 752 mmHg 69%
    01:00 +29°C° 0 mm 5 mps 752 mmHg 69%
    02:00 +29°C° 0 mm 5 mps 751 mmHg 70%
    03:00 +28°C° 0 mm 4 mps 751 mmHg 70%
    04:00 +28°C° 0 mm 4 mps 751 mmHg 70%
    05:00 +28°C° 0 mm 3 mps 751 mmHg 71%
    06:00 +29°C° 0 mm 4 mps 752 mmHg 65%
    07:00 +30°C° 0 mm 4 mps 753 mmHg 59%
    08:00 +32°C° 0 mm 4 mps 754 mmHg 54%
    09:00 +34°C° 0 mm 4 mps 754 mmHg 44%
    10:00 +37°C° 0 mm 4 mps 754 mmHg 33%
    11:00 +39°C° 0 mm 3 mps 754 mmHg 23%
    12:00 +41°C° 0 mm 4 mps 754 mmHg 22%
    13:00 +42°C° 0 mm 5 mps 753 mmHg 21%
    14:00 +43°C° 0 mm 5 mps 752 mmHg 20%
    15:00 +42°C° 0 mm 6 mps 752 mmHg 23%
    16:00 +41°C° 0 mm 7 mps 751 mmHg 26%
    17:00 +39°C° 0 mm 7 mps 751 mmHg 30%
    18:00 +38°C° 0 mm 7 mps 752 mmHg 37%
    19:00 +35°C° 0 mm 6 mps 752 mmHg 43%
    20:00 +33°C° 0 mm 6 mps 753 mmHg 50%
    21:00 +32°C° 0 mm 5 mps 753 mmHg 53%
    22:00 +32°C° 0 mm 5 mps 753 mmHg 57%
    23:00 +30°C° 0 mm 4 mps 753 mmHg 60%

    25 April, Thursday

    Time Temperature Precipitation Wind Pressure Humidity
    00:00 +30°C° 0 mm 4 mps 752 mmHg 62%
    01:00 +29°C° 0 mm 4 mps 752 mmHg 63%
    02:00 +29°C° 0 mm 4 mps 751 mmHg 65%
    03:00 +28°C° 0 mm 4 mps 751 mmHg 65%
    04:00 +28°C° 0 mm 4 mps 751 mmHg 65%
    05:00 +28°C° 0 mm 4 mps 751 mmHg 64%
    06:00 +29°C° 0 mm 4 mps 752 mmHg 59%
    07:00 +30°C° 0 mm 4 mps 753 mmHg 53%
    08:00 +32°C° 0 mm 4 mps 754 mmHg 47%
    09:00 +35°C° 0 mm 4 mps 754 mmHg 38%
    10:00 +37°C° 0 mm 3 mps 754 mmHg 29%
    11:00 +40°C° 0 mm 3 mps 754 mmHg 19%
    12:00 +42°C° 0 mm 4 mps 753 mmHg 19%
    13:00 +43°C° 0 mm 5 mps 753 mmHg 18%
    14:00 +45°C° 0 mm 5 mps 752 mmHg 18%
    15:00 +44°C° 0 mm 6 mps 752 mmHg 22%
    16:00 +42°C° 0 mm 6 mps 751 mmHg 26%
    17:00 +41°C° 0 mm 7 mps 751 mmHg 30%
    18:00 +39°C° 0 mm 6 mps 751 mmHg 36%
    19:00 +36°C° 0 mm 6 mps 752 mmHg 42%
    20:00 +34°C° 0 mm 5 mps 752 mmHg 47%
    21:00 +34°C° 0 mm 5 mps 752 mmHg 50%
    22:00 +33°C° 0 mm 4 mps 752 mmHg 52%
    23:00 +32°C° 0 mm 4 mps 753 mmHg 55%

    26 April, Friday

    Time Temperature Precipitation Wind Pressure Humidity
    00:00 +32°C° 0 mm 4 mps 752 mmHg 57%
    01:00 +30°C° 0 mm 4 mps 751 mmHg 58%
    02:00 +30°C° 0 mm 4 mps 751 mmHg 60%
    03:00 +29°C° 0 mm 3 mps 750 mmHg 60%
    04:00 +29°C° 0 mm 3 mps 750 mmHg 59%
    05:00 +29°C° 0 mm 3 mps 750 mmHg 59%
    06:00 +30°C° 0 mm 3 mps 751 mmHg 53%
    07:00 +32°C° 0 mm 4 mps 752 mmHg 47%
    08:00 +34°C° 0 mm 4 mps 752 mmHg 42%
    09:00 +36°C° 0 mm 4 mps 753 mmHg 34%
    10:00 +40°C° 0 mm 4 mps 753 mmHg 26%
    11:00 +43°C° 0 mm 4 mps 753 mmHg 18%
    12:00 +45°C° 0 mm 5 mps 752 mmHg 17%
    13:00 +46°C° 0 mm 5 mps 752 mmHg 15%
    14:00 +47°C° 0 mm 5 mps 751 mmHg 14%
    15:00 +46°C° 0 mm 6 mps 751 mmHg 16%
    16:00 +45°C° 0 mm 7 mps 751 mmHg 18%
    17:00 +44°C° 0 mm 7 mps 751 mmHg 20%
    18:00 +41°C° 0 mm 7 mps 751 mmHg 25%
    19:00 +39°C° 0 mm 7 mps 752 mmHg 30%
    20:00 +36°C° 0 mm 6 mps 752 mmHg 36%
    21:00 +35°C° 0 mm 6 mps 752 mmHg 39%
    22:00 +34°C° 0 mm 5 mps 752 mmHg 43%
    23:00 +33°C° 0 mm 5 mps 752 mmHg 47%
    Show more